Location: Volkssternwarte_EN
(51.3230°N, 7.4010°E)
Time: 04:06:11
(UTC+01:00)

ISS - Visible Passes

Search period start: 22 February 2018 00:00
Search period end: 04 March 2018 00:00
Orbit: 403 x 407 km, 51.6° (Epoch: 22 February)

Date Brightness Start Highest point End Pass type
(mag) Time Alt. Az. Time Alt. Az. Time Alt. Az.
28 Feb -1.2 06:16:17 10° S 06:18:39 19° SE 06:21:00 10° E visible
01 Mar -0.9 05:25:19 10° SSE 05:26:37 12° SE 05:27:54 10° ESE visible
02 Mar -2.3 06:07:19 10° SW 06:10:17 32° SSE 06:13:15 10° E visible
03 Mar -1.8 05:16:56 17° S 05:18:09 21° SE 05:20:43 10° E visible
